User: anonymous
Location: Cranbrook Institute of Science
(42.5830°N, 83.2450°W)
Time: 01:32:48
(UTC-04:00)
Language:

CZ-4B R/B - Orbit

View from above orbital plane
View from above orbital plane
View from above satellite
View from above satellite

Ground track
Ground track

The orbit data is extracted from the following two-line orbital elements,

1 29093U 06015B   14107.92665111  .00015560  00000-0  58007-3 0  2756
2 29093 097.5235 187.2157 0094624 112.1323 335.6552 15.23328844440406
Epoch (UTC): 17 April 2014 22:14:22
Eccentricity: 0.0094624
inclination: 97.5235°
perigee height: 431 km
apogee height: 561 km
right ascension of ascending node: 187.2157°
argument of perigee: 112.1323°
revolutions per day: 15.23328844
mean anomaly at epoch: 335.6552°
orbit number at epoch: 44040

The dashed part of the orbit path shows where the satellite is in the earth's shadow,  

DLR